When you browse on this site, cookies collect data to enhance your experience and personalize the content and advertising you see.
Visit our Privacy Policy to learn more. By continuing to use the site, you agree to this use of cookies and data.
  • en France
  • Liste des pays
  • À 7 jours
  • Température de l'eau
  • Carte météo
  • Widgets météo
  • user-avatar
    Se connecter

    Météo par heure à Francistown

    Ce jour, 17 Février, Lundi

    Heure Température Précipitation Vent Pression Humidité
    00:00 +26°C° 0 mm 5 m/s 677 mmHg 68%
    01:00 +25°C° 0 mm 5 m/s 677 mmHg 71%
    02:00 +23°C° 0 mm 4 m/s 677 mmHg 75%
    03:00 +23°C° 0 mm 4 m/s 676 mmHg 77%
    04:00 +22°C° 0 mm 4 m/s 676 mmHg 79%
    05:00 +22°C° 0 mm 3 m/s 676 mmHg 81%
    06:00 +23°C° 0 mm 4 m/s 677 mmHg 76%
    07:00 +25°C° 0 mm 5 m/s 677 mmHg 72%
    08:00 +26°C° 0 mm 5 m/s 678 mmHg 67%
    09:00 +28°C° 0 mm 5 m/s 678 mmHg 59%
    10:00 +30°C° 0 mm 5 m/s 678 mmHg 51%
    11:00 +33°C° 0 mm 4 m/s 678 mmHg 43%
    12:00 +34°C° 0 mm 4 m/s 677 mmHg 41%
    13:00 +34°C° 0 mm 4 m/s 677 mmHg 40%
    14:00 +35°C° 0 mm 4 m/s 676 mmHg 38%
    15:00 +35°C° 0 mm 3 m/s 676 mmHg 37%
    16:00 +35°C° 0 mm 3 m/s 675 mmHg 35%
    17:00 +36°C° 0 mm 3 m/s 675 mmHg 34%
    18:00 +34°C° 0 mm 3 m/s 675 mmHg 39%
    19:00 +33°C° 0 mm 4 m/s 675 mmHg 43%
    20:00 +30°C° 0 mm 4 m/s 676 mmHg 48%
    21:00 +29°C° 0 mm 4 m/s 676 mmHg 51%
    22:00 +28°C° 0 mm 4 m/s 676 mmHg 55%
    23:00 +27°C° 0 mm 5 m/s 676 mmHg 58%

    Demain, 18 Février, Mardi

    Heure Température Précipitation Vent Pression Humidité
    00:00 +26°C° 0 mm 4 m/s 676 mmHg 63%
    01:00 +26°C° 0 mm 4 m/s 676 mmHg 68%
    02:00 +25°C° 0 mm 3 m/s 676 mmHg 72%
    03:00 +24°C° 0 mm 3 m/s 676 mmHg 74%
    04:00 +24°C° 0 mm 3 m/s 675 mmHg 76%
    05:00 +23°C° 0 mm 2 m/s 675 mmHg 77%
    06:00 +23°C° 0 mm 4 m/s 676 mmHg 72%
    07:00 +25°C° 0 mm 5 m/s 677 mmHg 67%
    08:00 +27°C° 0 mm 7 m/s 678 mmHg 62%
    09:00 +28°C° 0 mm 7 m/s 678 mmHg 54%
    10:00 +30°C° 0 mm 7 m/s 678 mmHg 47%
    11:00 +33°C° 0 mm 7 m/s 678 mmHg 40%
    12:00 +34°C° 0 mm 7 m/s 678 mmHg 37%
    13:00 +35°C° 0 mm 7 m/s 677 mmHg 34%
    14:00 +36°C° 0 mm 7 m/s 677 mmHg 31%
    15:00 +35°C° 0 mm 7 m/s 677 mmHg 32%
    16:00 +35°C° 0 mm 7 m/s 676 mmHg 34%
    17:00 +34°C° 0 mm 7 m/s 676 mmHg 35%
    18:00 +32°C° 0 mm 7 m/s 676 mmHg 41%
    19:00 +30°C° 0 mm 6 m/s 676 mmHg 48%
    20:00 +28°C° 0 mm 6 m/s 676 mmHg 54%
    21:00 +27°C° 0 mm 6 m/s 677 mmHg 58%
    22:00 +26°C° 0 mm 6 m/s 677 mmHg 61%
    23:00 +26°C° 0 mm 6 m/s 677 mmHg 64%

    Après-demain, 19 Février, Mercredi

    Heure Température Précipitation Vent Pression Humidité
    00:00 +24°C° 0 mm 6 m/s 677 mmHg 68%
    01:00 +23°C° 0 mm 5 m/s 677 mmHg 71%
    02:00 +23°C° 0 mm 4 m/s 677 mmHg 75%
    03:00 +22°C° 0 mm 4 m/s 676 mmHg 78%
    04:00 +22°C° 0 mm 3 m/s 676 mmHg 81%
    05:00 +21°C° 0 mm 3 m/s 676 mmHg 85%
    06:00 +22°C° 0 mm 4 m/s 677 mmHg 79%
    07:00 +23°C° 0 mm 5 m/s 677 mmHg 74%
    08:00 +24°C° 0 mm 6 m/s 678 mmHg 68%
    09:00 +27°C° 0 mm 6 m/s 678 mmHg 59%
    10:00 +30°C° 0 mm 6 m/s 678 mmHg 50%
    11:00 +33°C° 0 mm 5 m/s 679 mmHg 41%
    12:00 +34°C° 0 mm 5 m/s 678 mmHg 36%
    13:00 +35°C° 0 mm 5 m/s 678 mmHg 31%
    14:00 +36°C° 0 mm 4 m/s 677 mmHg 26%
    15:00 +36°C° 0 mm 4 m/s 677 mmHg 27%
    16:00 +35°C° 0 mm 4 m/s 676 mmHg 27%
    17:00 +35°C° 0 mm 4 m/s 675 mmHg 27%
    18:00 +33°C° 0 mm 4 m/s 676 mmHg 32%
    19:00 +30°C° 0 mm 4 m/s 676 mmHg 36%
    20:00 +29°C° 0 mm 3 m/s 676 mmHg 40%
    21:00 +28°C° 0 mm 4 m/s 676 mmHg 46%
    22:00 +27°C° 0 mm 4 m/s 676 mmHg 51%
    23:00 +26°C° 0 mm 4 m/s 677 mmHg 56%

    20 Février, Jeudi

    Heure Température Précipitation Vent Pression Humidité
    00:00 +25°C° 0 mm 4 m/s 676 mmHg 60%
    01:00 +23°C° 0 mm 4 m/s 676 mmHg 65%
    02:00 +23°C° 0 mm 4 m/s 676 mmHg 69%
    03:00 +22°C° 0 mm 3 m/s 676 mmHg 72%
    04:00 +22°C° 0 mm 3 m/s 676 mmHg 75%
    05:00 +21°C° 0 mm 2 m/s 676 mmHg 79%
    06:00 +23°C° 0 mm 2 m/s 676 mmHg 74%
    07:00 +25°C° 0 mm 3 m/s 677 mmHg 69%
    08:00 +26°C° 0 mm 4 m/s 677 mmHg 64%
    09:00 +28°C° 0 mm 3 m/s 677 mmHg 54%
    10:00 +30°C° 0 mm 3 m/s 677 mmHg 45%
    11:00 +32°C° 0 mm 2 m/s 678 mmHg 36%
    12:00 +35°C° 0 mm 2 m/s 677 mmHg 31%
    13:00 +36°C° 0 mm 2 m/s 676 mmHg 26%
    14:00 +36°C° 0 mm 1 m/s 676 mmHg 21%
    15:00 +37°C° 0 mm 2 m/s 675 mmHg 21%
    16:00 +37°C° 0 mm 2 m/s 675 mmHg 20%
    17:00 +37°C° 0 mm 2 m/s 674 mmHg 20%
    18:00 +35°C° 0 mm 2 m/s 674 mmHg 23%
    19:00 +31°C° 0 mm 3 m/s 674 mmHg 26%
    20:00 +29°C° 0 mm 3 m/s 674 mmHg 30%
    21:00 +28°C° 0 mm 3 m/s 674 mmHg 33%
    22:00 +27°C° 0 mm 3 m/s 675 mmHg 36%
    23:00 +26°C° 0 mm 3 m/s 675 mmHg 39%

    21 Février, Vendredi

    Heure Température Précipitation Vent Pression Humidité
    00:00 +26°C° 0 mm 3 m/s 675 mmHg 43%
    01:00 +25°C° 0 mm 3 m/s 675 mmHg 48%
    02:00 +25°C° 0 mm 2 m/s 675 mmHg 52%
    03:00 +24°C° 0 mm 2 m/s 675 mmHg 54%
    04:00 +24°C° 0 mm 2 m/s 674 mmHg 55%
    05:00 +24°C° 0 mm 2 m/s 674 mmHg 57%
    06:00 +25°C° 0 mm 3 m/s 675 mmHg 55%
    07:00 +26°C° 0 mm 3 m/s 676 mmHg 54%
    08:00 +28°C° 0 mm 4 m/s 676 mmHg 52%
    15:00 +35°C° 0 mm 3 m/s 675 mmHg 30%
    16:00 +35°C° 0 mm 4 m/s 674 mmHg 33%
    17:00 +34°C° 0 mm 4 m/s 674 mmHg 35%
    18:00 +33°C° 0 mm 3 m/s 674 mmHg 39%
    19:00 +30°C° 0 mm 2 m/s 674 mmHg 42%
    20:00 +29°C° 0 mm 1 m/s 674 mmHg 46%
    21:00 +28°C° 0 mm 2 m/s 675 mmHg 50%
    22:00 +27°C° 0 mm 2 m/s 675 mmHg 55%
    23:00 +27°C° 0 mm 3 m/s 675 mmHg 59%

    22 Février, Samedi

    Heure Température Précipitation Vent Pression Humidité
    00:00 +26°C° 0.1 mm 3 m/s 675 mmHg 63%
    01:00 +25°C° 0.1 mm 3 m/s 675 mmHg 68%
    02:00 +25°C° 0.1 mm 3 m/s 675 mmHg 72%
    03:00 +23°C° 0 mm 4 m/s 675 mmHg 75%
    04:00 +23°C° 0 mm 4 m/s 675 mmHg 78%
    05:00 +22°C° 0 mm 4 m/s 675 mmHg 81%
    06:00 +23°C° 0 mm 5 m/s 675 mmHg 77%
    07:00 +25°C° 0 mm 5 m/s 676 mmHg 74%
    08:00 +26°C° 0 mm 5 m/s 676 mmHg 70%
    09:00 +28°C° 0 mm 5 m/s 677 mmHg 61%
    10:00 +32°C° 0 mm 4 m/s 677 mmHg 52%
    11:00 +34°C° 0 mm 4 m/s 677 mmHg 42%
    12:00 +35°C° 0 mm 4 m/s 677 mmHg 38%
    13:00 +36°C° 0 mm 4 m/s 676 mmHg 34%
    14:00 +37°C° 0 mm 4 m/s 675 mmHg 30%
    15:00 +37°C° 0 mm 4 m/s 675 mmHg 32%
    16:00 +36°C° 0 mm 4 m/s 674 mmHg 34%
    17:00 +35°C° 0 mm 5 m/s 673 mmHg 35%
    18:00 +34°C° 0.1 mm 4 m/s 673 mmHg 41%
    19:00 +31°C° 0.1 mm 3 m/s 673 mmHg 46%
    20:00 +29°C° 0.1 mm 2 m/s 674 mmHg 52%
    21:00 +28°C° 0.5 mm 2 m/s 674 mmHg 58%
    22:00 +27°C° 0.5 mm 2 m/s 674 mmHg 65%
    23:00 +26°C° 0.5 mm 2 m/s 674 mmHg 71%
    Voir plus